Meteo Giornale » Osservazioni meteo Italia » Treviso-S Angelo

ore: 04:50 - Osservazioni Meteo Treviso-S Angelo
Lat. 45° 39' N Lon. 12° 11' E Alt. 18 metri s.l.m.

molto_nuvoloso Europe/Rome

16 °C

Molto Nuvoloso

Temp. 24 Ore

14 °C

21 °C

Nord/Nord-Est

7.4 Km/h

Dew point 15 °C

Umidità 93 %

Visibilità  10 Km

Il sole sorge alle ore 07:33

Il sole tramonta alle ore 18:18

Data e Ora Cielo e Fenomeni T °C DP °C Um. % Pres. hPa Vis. km Vento km/h
Oggi h: 04:50 molto_nuvoloso Molto Nuvoloso 16 15 93 1017 10 N/NE 7.4
Oggi h: 04:20 molto_nuvoloso Molto Nuvoloso 17 15 88 1017 10 N/NE 7.4
Oggi h: 03:50 molto_nuvoloso Molto Nuvoloso 16 15 93 1017 10 N 5.5
Oggi h: 03:20 molto_nuvoloso Molto Nuvoloso 16 15 93 1017 10 N 5.5
Oggi h: 02:50 molto_nuvoloso Molto Nuvoloso 17 15 88 1017 10 N 5.5
Oggi h: 02:20 molto_nuvoloso Molto Nuvoloso 17 15 88 1017 10 N/NE 7.4
Oggi h: 01:50 molto_nuvoloso Molto Nuvoloso 17 15 88 1017 10 N/NE 7.4
Oggi h: 01:20 coperto Coperto 18 15 82 1017 10 N/NE 7.4
Oggi h: 00:50 coperto Coperto 17 15 88 1017 10 N 9.3
Oggi h: 00:20 molto_nuvoloso Molto Nuvoloso 17 15 88 1017 10 N/NE 9.3
Ieri h: 23:50 molto_nuvoloso Molto Nuvoloso 17 16 93 1017 10 N 7.4
Ieri h: 23:20 coperto Coperto 17 16 93 1017 10 N 7.4
Ieri h: 22:50 nuvoloso Nuvoloso 17 16 93 1017 10 N/NE 7.4
Ieri h: 22:20 nuvoloso Nuvoloso 18 16 88 1017 10 N 5.5
Ieri h: 21:50 nuvoloso Nuvoloso 17 16 93 1017 10 N/NE 7.4
Ieri h: 21:20 nuvoloso Nuvoloso 18 16 88 1017 10 N 7.4
Ieri h: 20:50 nuvoloso Nuvoloso 18 16 88 1016 10 N 5.5
Ieri h: 20:20 nuvoloso Nuvoloso 18 16 88 1016 10 N 5.5
Ieri h: 19:50 nuvoloso Nuvoloso 18 16 88 1016 10 N 3.7
Ieri h: 19:20 nuvoloso Nuvoloso 18 16 88 1016 10 N 5.5
Ieri h: 18:50 nuvoloso Nuvoloso 18 15 82 1016 10 N/NE 7.4
Ieri h: 17:50 nuvoloso Nuvoloso 19 15 77 1016 10 N/NE 7.4
Ieri h: 17:20 nuvoloso Nuvoloso 19 16 82 1016 10 N 5.5
Ieri h: 16:50 nuvoloso Nuvoloso 19 16 82 1016 10 N 7.4
Ieri h: 16:20 nuvoloso Nuvoloso 20 16 77 1016 10 N 11.1
Ieri h: 15:50 nuvoloso Nuvoloso 20 16 77 1016 10 N 7.4
Ieri h: 15:20 nuvoloso Nuvoloso 20 15 72 1016 10 N 7.4
Ieri h: 14:50 nuvoloso Nuvoloso 20 15 72 1016 10 N 5.5
Ieri h: 14:20 nuvoloso Nuvoloso 21 13 60 1016 10 N 1.8
Ieri h: 13:50 nuvoloso Nuvoloso 21 14 64 1016 10 N 3.7
Ieri h: 13:20 nuvoloso Nuvoloso 21 15 68 1016 10 N 3.7
Ieri h: 12:50 sereno Sereno 20 15 72 1016 10 NE 7.4
Ieri h: 12:20 sereno Sereno 20 16 77 1016 8 NE 7.4
Ieri h: 11:50 poco_nuvoloso Poco Nuvoloso 20 16 77 1016 8 NE 9.3
Ieri h: 11:20 poco_nuvoloso Poco Nuvoloso 18 16 88 1016 7 NE 9.3
Ieri h: 10:50 nuvoloso Nuvoloso 18 15 82 1016 7 NE 9.3
Ieri h: 10:20 foschia Foschia 17 15 88 1016 5 N/NE 9.3
Ieri h: 09:50 foschia Foschia 17 15 88 1016 4 NE 7.4
Ieri h: 09:20 foschia Foschia 16 15 93 1016 3 N/NE 7.4
Ieri h: 08:50 foschia Foschia 16 15 93 1016 3 N 5.5
Ieri h: 08:20 foschia Foschia 15 15 100 1016 2 N 5.5
Ieri h: 07:50 foschia Foschia 15 15 100 1016 2 N 5.5
Ieri h: 07:20 foschia Foschia 15 15 100 1016 2 N 5.5
Ieri h: 06:50 foschia Foschia 15 14 93 1016 2 N/NE 7.4
Ieri h: 06:20 foschia Foschia 14 14 100 1016 2 N 3.7
Ieri h: 05:50 foschia Foschia 15 15 100 1016 2 N 5.5